Cedar Falls, IA

5:46 PM CDT on September 24, 2016 (GMT -0500)
Waterloo Municipal

Weather History for KALO - January, 2013

Change the Weather History Date:

Wednesday, January 16, 2013

  Actual Average Record
Temperature  
Mean Temperature 32 °F 18 °F  
Max Temperature 44 °F 27 °F 56 °F (1914)
Min Temperature 20 °F 9 °F -34 °F (2009)
Degree Days  
Heating Degree Days 33 47  
Month to date heating degree days 682 748  
Since 1 July heating degree days 3358 3559  
Cooling Degree Days 0 0  
Month to date cooling degree days 0 0  
Year to date cooling degree days 0 0  
Moisture  
Dew Point 23 °F    
Average Humidity 76    
Maximum Humidity 89    
Minimum Humidity 62    
Precipitation  
Precipitation T in 0.02 in 0.91 in (1980)
Month to date precipitation 0.19 0.42  
Year to date precipitation 0.19 0.42  
Snow  
Snow T in 0.30 in 2.30 in (1994)
Month to date snowfall T 4.0  
Since 1 July snowfall 11.3 17.3  
Snow Depth T in    
Sea Level Pressure  
Sea Level Pressure 29.98 in    
Wind  
Wind Speed 15 mph (West)    
Max Wind Speed 24 mph    
Max Gust Speed 30 mph    
Visibility 10 miles    
Events      
T = Trace of Precipitation, MM = Missing Value Source: NWS Daily Summary

Daily Weather History Graph

Daily Weather History Graph

Search for Another Location

Airport or City:

Trip Planner

Search our weather history database for the weather conditions in past years. The results will help you decide how hot, cold, wet, or windy it might be!

Date:

Astronomy

Jan. 16, 2013 Rise Set
Actual Time 7:36 AM CST 5:03 PM CST
Civil Twilight 7:05 AM CST 5:34 PM CST
Nautical Twilight 6:30 AM CST 6:09 PM CST
Astronomical Twilight 5:56 AM CST 6:42 PM CST
Moon 10:04 AM CST (1/16) 11:04 PM CST (1/16)
Length of Visible Light 10h 29m
Length of Day
9h 27m
Waxing Crescent, 28% of the Moon is Illuminated
Jan 16
Waxing Crescent
Jan 18
First Quarter
Jan 26
Full
Feb 3
Last Quarter
Feb 10
New

Hourly Weather History & Observations

Time (CST) Temp. Windchill Dew Point Humidity Pressure Visibility Wind Dir Wind Speed Gust Speed Precip Events Conditions
12:54 AM 19.9 °F 6.7 °F 10.0 °F 65% 30.04 in 10.0 mi SSW 13.8 mph - N/A   Clear
1:54 AM 19.9 °F 7.3 °F 10.0 °F 65% 30.02 in 10.0 mi SSW 12.7 mph - N/A   Clear
2:54 AM 21.0 °F 8.1 °F 10.0 °F 63% 29.99 in 10.0 mi SSW 13.8 mph - N/A   Clear
3:54 AM 21.0 °F 8.1 °F 10.9 °F 65% 29.96 in 10.0 mi SSW 13.8 mph - N/A   Clear
4:54 AM 21.0 °F 7.6 °F 12.0 °F 68% 29.91 in 10.0 mi SSW 15.0 mph 21.9 mph N/A   Clear
5:54 AM 24.1 °F 10.6 °F 14.0 °F 65% 29.88 in 10.0 mi SW 17.3 mph 27.6 mph N/A   Overcast
6:54 AM 25.0 °F 10.2 °F 15.1 °F 66% 29.87 in 10.0 mi SW 21.9 mph 27.6 mph N/A   Overcast
7:54 AM 26.1 °F 13.1 °F 15.1 °F 63% 29.88 in 10.0 mi SW 17.3 mph 24.2 mph N/A   Overcast
8:02 AM 24.8 °F 11.9 °F 15.8 °F 69% 29.84 in 10.0 mi SW 16.1 mph 25.3 mph N/A   Overcast
8:54 AM 26.1 °F 13.6 °F 17.1 °F 69% 29.88 in 10.0 mi SW 16.1 mph - N/A   Overcast
9:54 AM 28.9 °F 16.5 °F 19.9 °F 69% 29.88 in 10.0 mi WSW 18.4 mph 25.3 mph N/A   Overcast
10:54 AM 30.9 °F 19.4 °F 21.9 °F 69% 29.88 in 10.0 mi WSW 17.3 mph - N/A   Overcast
11:42 AM 33.8 °F 23.9 °F 24.8 °F 70% 29.83 in 10.0 mi West 15.0 mph - N/A   Overcast
11:54 AM 35.1 °F 25.5 °F 26.1 °F 70% 29.86 in 10.0 mi West 15.0 mph 21.9 mph N/A   Overcast
12:54 PM 39.0 °F 29.9 °F 28.0 °F 65% 29.85 in 10.0 mi West 17.3 mph - N/A   Scattered Clouds
1:54 PM 42.1 °F 35.7 °F 30.0 °F 62% 29.86 in 10.0 mi West 11.5 mph - N/A   Partly Cloudy
2:54 PM 42.1 °F 36.6 °F 30.9 °F 65% 29.88 in 10.0 mi West 9.2 mph - N/A   Overcast
3:54 PM 41.0 °F 37.1 °F 30.9 °F 67% 29.89 in 10.0 mi WSW 5.8 mph - N/A   Overcast
4:54 PM 39.9 °F 34.5 °F 33.1 °F 77% 29.94 in 10.0 mi West 8.1 mph - 0.00 in   Overcast
5:54 PM 39.9 °F 31.8 °F 34.0 °F 79% 29.97 in 10.0 mi WNW 15.0 mph 23.0 mph 0.00 in   Overcast
6:54 PM 37.9 °F 28.5 °F 33.1 °F 83% 30.01 in 10.0 mi NNW 17.3 mph - N/A   Overcast
7:16 PM 37.4 °F 27.2 °F 33.8 °F 87% 30.00 in 10.0 mi NNW 19.6 mph - N/A   Overcast
7:39 PM 35.6 °F 27.1 °F 32.0 °F 87% 30.01 in 10.0 mi NNW 12.7 mph - N/A   Overcast
7:51 PM 33.8 °F 25.3 °F 30.2 °F 87% 30.01 in 10.0 mi NW 11.5 mph - N/A   Mostly Cloudy
7:54 PM 34.0 °F 25.5 °F 30.9 °F 89% 30.05 in 10.0 mi NW 11.5 mph - N/A   Scattered Clouds
8:54 PM 32.0 °F 21.6 °F 28.0 °F 85% 30.09 in 10.0 mi NNW 15.0 mph - N/A   Mostly Cloudy
9:05 PM 32.0 °F 21.6 °F 28.4 °F 87% 30.07 in 10.0 mi NNW 15.0 mph - N/A   Scattered Clouds
9:20 PM 32.0 °F 20.8 °F 26.6 °F 80% 30.08 in 10.0 mi NNW 17.3 mph - N/A   Mostly Cloudy
9:46 PM 30.2 °F 17.8 °F 24.8 °F 80% 30.09 in 10.0 mi NNW 19.6 mph 25.3 mph N/A   Scattered Clouds
9:54 PM 30.0 °F 18.7 °F 24.1 °F 79% 30.13 in 10.0 mi NNW 16.1 mph - N/A   Partly Cloudy
10:44 PM 28.4 °F 16.6 °F 21.2 °F 74% 30.13 in 10.0 mi NNW 16.1 mph - N/A   Mostly Cloudy
10:54 PM 28.0 °F 16.1 °F 21.9 °F 78% 30.16 in 10.0 mi NNW 16.1 mph 23.0 mph N/A   Overcast
11:21 PM 26.6 °F 15.2 °F 19.4 °F 74% 30.14 in 10.0 mi NNW 13.8 mph - N/A   Scattered Clouds
11:54 PM 24.1 °F 10.6 °F 17.1 °F 75% 30.20 in 10.0 mi NW 17.3 mph - N/A   Clear